Location: Gleizolles
(44.4833°N, 6.7667°E)
Time: 21:23:26
(UTC+00:00)

Tiros 1 despin weight - Pass Details

Date: 28 June 2024
Orbit: 576 x 620 km, 48.2° (Epoch: 19 July)

Event Time Altitude Azimuth Distance (km) Brightness Sun altitude
Rises 08:55:07 0° 218° (SW) 2,856 ? 50.9°
Reaches altitude 10° 08:57:32 10° 209° (SSW) 1,962 ? 51.3°
Maximum altitude 09:01:38 35° 144° (SE) 999 ? 52.0°
Drops below altitude 10° 09:05:47 10° 78° (ENE) 1,986 ? 52.7°
Sets 09:08:15 0° 70° (ENE) 2,896 ? 53.1°
